Tracking 28790 objects as of 18-Apr-2024
HD Live streaming from Space Station
objects crossing your sky now

CZ-3B DEB

Track CZ-3B DEB now!


NORAD ID: 40158
Int'l Code: 2010-042K
Perigee: 1,082.6 km
Apogee: 41,487.5 km
Inclination: 26.5 °
Period: 762.9 minutes
Semi major axis: 27656 km
RCS: Unknown
Launch date: September 4, 2010
Source: People's Republic of China (PRC)
Launch site: Xichang Space Center, China (XSC)

Note: This is SATELLITE DEBRIS
Your satellite tracking list
Your tracking list is empty




NASA's NSSDC Master Catalog

Two Line Element Set (TLE):
1 40158U 10042K   24108.56119441 -.00000181  00000-0  00000-0 0  9992
2 40158  26.5461  52.1765 7304893 111.5912  22.0898  1.88763272 71814
Source of the keplerian elements: AFSPC